Weather History for Fes-Sais, Morocco

Change the Weather History Date:

Thursday, February 21, 2013

  Actual Average Record
Temperature  
Mean Temperature 49 °F -  
Max Temperature 63 °F 64 °F 73 °F (1997)
Min Temperature 35 °F 41 °F 32 °F (2001)
Degree Days  
Heating Degree Days 16    
Moisture  
Dew Point 43 °F    
Average Humidity 71    
Maximum Humidity 94    
Minimum Humidity 41    
Precipitation  
Precipitation 0.04 in 0.13 in - ()
Sea Level Pressure  
Sea Level Pressure 30.10 in    
Wind  
Wind Speed 7 mph ()    
Max Wind Speed 16 mph    
Max Gust Speed -    
Visibility 5.8 miles    
Events Rain    
Averages and records for this station are not official NWS values.
T = Trace of Precipitation, MM = Missing Value Source: Averaged Metar Reports

Daily Weather History Graph

Daily Weather History Graph

Search for Another Location

Airport:

Trip Planner

Search our weather history database for the weather conditions in past years. The results will help you decide how hot, cold, wet, or windy it might be!

Date:

Astronomy

Feb. 21, 2013 Rise Set
Actual Time 6:57 AM WET 6:09 PM WET
Civil Twilight 6:32 AM WET 6:34 PM WET
Nautical Twilight 6:03 AM WET 7:03 PM WET
Astronomical Twilight 5:34 AM WET 7:32 PM WET
Moon 2:18 PM WET (2/21) 3:44 AM WET (2/21)
Length of Visible Light 12h 02m
Length of Day
11h 11m
Waxing Gibbous, 82% of the Moon is Illuminated
Feb 21
Waxing Gibbous
Feb 25
Full
Mar 4
Last Quarter
Mar 11
New
Mar 19
First Quarter

Hourly Weather History & Observations

Time (WET) Temp. Windchill Dew Point Humidity Pressure Visibility Wind Dir Wind Speed Gust Speed Precip Events Conditions
12:00 AM 45 °F - 38 °F 67% 30.15 in 6 mi SSW 9.2 mph - -   Scattered Clouds
12:00 AM 44.6 °F 39.7 °F 37.4 °F 76% 30.09 in 6.2 mi SSW 9.2 mph - N/A   Partly Cloudy
1:00 AM 41.0 °F - 35.6 °F 81% 30.09 in 6.2 mi North - - N/A   Partly Cloudy
2:00 AM 39.2 °F 34.2 °F 32.0 °F 75% 30.09 in - SW 6.9 mph - N/A   Clear
3:00 AM 40 °F - 33 °F 69% 30.17 in 6 mi SW 8.1 mph - -  
3:00 AM 41.0 °F 35.8 °F 33.8 °F 76% 30.09 in - SW 8.1 mph - N/A   Clear
4:00 AM 41.0 °F 35.8 °F 33.8 °F 76% 30.06 in - South 8.1 mph - N/A   Clear
5:00 AM 41.0 °F 36.4 °F 32.0 °F 70% 30.06 in - South 6.9 mph - N/A   Clear
6:00 AM 44 °F - 34 °F 57% 30.15 in 6 mi SW 2.3 mph - -   Clear
6:00 AM 44.6 °F 43.1 °F 35.6 °F 71% 30.09 in 6.2 mi Variable 3.5 mph - N/A   Mostly Cloudy
7:00 AM 44.6 °F 39.7 °F 35.6 °F 71% 30.09 in 6.2 mi SSW 9.2 mph - N/A   Mostly Cloudy
8:00 AM 48.2 °F - 35.6 °F 62% 30.12 in - Variable 2.3 mph - N/A   Mostly Cloudy
9:00 AM 56 °F - 45 °F 57% 30.14 in 6 mi WSW 8.1 mph - -   Partly Cloudy
9:00 AM 53.6 °F - 42.8 °F 67% 30.12 in 6.2 mi WSW 5.8 mph - N/A   Scattered Clouds
10:00 AM 57.2 °F - 41.0 °F 55% 30.12 in 6.2 mi WSW 15.0 mph - N/A   Scattered Clouds
11:00 AM 59.0 °F - 42.8 °F 55% 30.12 in - WSW 16.1 mph - N/A   Clear
12:00 PM 59 °F - 41 °F 41% 30.13 in 6 mi WSW 16.1 mph - -   Partly Cloudy
12:00 PM 60.8 °F - 44.6 °F 55% 30.12 in 6.2 mi West 11.5 mph - N/A   Mostly Cloudy
1:00 PM 60.8 °F - 46.4 °F 59% 30.09 in 6.2 mi West 12.7 mph - N/A   Mostly Cloudy
2:00 PM 60.8 °F - 51.8 °F 72% 30.09 in 6.2 mi NNW 6.9 mph - N/A   Mostly Cloudy
3:00 PM 59 °F - 52 °F 72% 30.08 in 6 mi WNW 8.1 mph - -   Overcast
3:00 PM 59.0 °F - 51.8 °F 77% 30.09 in 6.2 mi WNW 8.1 mph - N/A   Mostly Cloudy
4:00 PM 57.2 °F - 55.4 °F 94% 30.06 in 6.2 mi WNW 6.9 mph - N/A   Mostly Cloudy
5:00 PM 55.4 °F - 50.0 °F 82% 30.06 in 6.2 mi NW 4.6 mph - N/A   Mostly Cloudy
6:00 PM 56 °F - 50 °F 75% 30.09 in 6 mi West 6.9 mph - - Rain Light Rain
6:00 PM 55.4 °F - 50.0 °F 82% 30.09 in 6.2 mi West 5.8 mph - N/A   Mostly Cloudy
7:00 PM 55.4 °F - 48.2 °F 77% 30.06 in 5.0 mi West 4.6 mph - N/A   Mostly Cloudy
8:00 PM 55.4 °F - 48.2 °F 77% 30.06 in 6.2 mi NW 4.6 mph - N/A   Mostly Cloudy
9:00 PM 55 °F - 50 °F 76% 30.10 in 3 mi WNW 6.9 mph - - Rain Light Rain
10:00 PM 55.4 °F - 50.0 °F 82% 30.09 in 3.7 mi West 9.2 mph - N/A Rain Light Rain
11:00 PM 55.4 °F - 50.0 °F 82% 30.09 in 5.0 mi West 10.4 mph - N/A   Mostly Cloudy